sat.trackr.live / text

‹ back to catalog

STARLINK-31134

NORAD 58621 · 2023-203D

PAYLOAD ACTIVE UNKNOWN

§ Identity

Operator
Country
US
Launch date
2023-12-23
Launch site
AFETR
Launch vehicle
Mass (kg)
RCS (m²)

Purposes: comms

External: N2YO · Heavens-Above · Gunter

§ Orbital elements

Epoch: 2026-09-20T03:08:46.817088Z

Period
94.27 min
Inclination
43.0060°
Eccentricity
0.0001471
Mean motion
15.27574649 rev/d
Perigee alt
482.1 km
Apogee alt
484.1 km
Semi-major
6,861.2 km
B*
-1.0294e-6
RAAN
49.4223°
Arg perigee
271.8643°
Mean anomaly
88.2041°
Rev number
15,329

§ Raw data

STARLINK-311341 58621U 23203D   26263.13109742 -.00000291  00000+0 -10294-5 0  99922 58621  43.0060  49.4223 0001471 271.8643  88.2041 15.27574649153298

JSON: /api/v1/satellites/58621 · /tle

For live sub-satellite position, see the globe view (requires WebGL).

§ Visibility from observer

Set your observer location to see the next 7 days of passes ≥ 10°. The values pass through the URL so the page stays shareable.

No JS? Fill the form by hand. The geolocation button needs JavaScript.